{"data":{"norad_id":61585,"epoch":"2026-09-21T16:43:33.666816Z","epoch_age_seconds":88627,"freshness":"FRESH","line1":"1 61585U 24187M   26264.69691744  .00084684  00000+0  69629-3 0  9997","line2":"2 61585  53.1571  50.1424 0000905 103.1675 256.9444 15.69725407111533","mean_motion":15.69725407,"eccentricity":9.05e-5,"inclination_deg":53.1571,"raan_deg":50.1424,"arg_perigee_deg":103.1675,"mean_anomaly_deg":256.9444,"bstar":0.00069629,"rev_number":11153,"period_min":91.735789812568,"perigee_km":359.07288916448,"apogee_km":360.29243452328,"semimajor_km":6737.8196618439,"source":"CELESTRAK","updated_at":"2026-09-22T09:00:49.392374Z"}}